SCP
0 0 0 0 0 0 0 0 0 0 0 0 0 0 0 0 0 0 0 0 0 0 0 0 0 0 0 0 0 0 0 0 0 0 0 0 0 0 0 0 0 0 0
0 0 0 0 0 0 0 0 0 0 0 0 0 0 0 0 0 0 0 0 0 0 0 0 0 0 0 0 0 0 0 0 0 0 0 0 0 0 0 0 0 0 0
0 0 0 0 0 0 0 0 0 0 0 0 0 0 0 0 0 0 0 0 0 0 0 0 0 0 0 0 0 0 0 0 0 0 0 0 0 0 0 0 0 0 0
0 0 0 0 0 0 0 0 0 0 0 0 0 0 0 0 0 0 0 0 0 0 0 0 0 0 0 0 0 0 0 0 0 0 0 0 0 0 0 0 0 0 0
0 0 0 0 0 0 0 0 0 0 0 0 0 0 0 0 0 0 0 0 0 0 0 0 0 0 0 0 0 0 0 0 0 0 0 0 0 0 0 0 0 0 0
0 0 0 0 0 0 0 0 0 0 0 0 0 0 0 0 0 0 0 0 0 0 0 0 0 0 0 0 0 0 0 0 0 0 0 0 0 0 0 0 0 0 0
0 0 0 0 0 0 0 0 0 0 0 0 0 0 0 0 0 0 0 0 0 0 0 0 0 0 0 0 0 0 0 0 0 0 0 0 0 0 0 0 0 0 0
0 0 0 0 0 0 0 0 0 0 0 0 0 0 0 0 0 0 0 0 0 0 0 0 0 0 0 0 0 0 0 0 0 0 0 0 0 0 0 0 0 0 0
0 0 0 0 0 0 0 0 0 0 0 0 0 0 0 0 0 0 0 0 0 0 0 0 0 0 0 0 0 0 0 0 0 0 0 0 0 0 0 0 0 0 0
0 0 0 0 0 0 0 0 0 0 0 0 0 0 0 0 0 0 0 0 0 0 0 0 0 0 0 0 0 0 0 0 0 0 0 0 0 0 0 0 0 0 0
0 0 0 0 0 0 0 0 0 0 0 0 0 0 0 0 0 0 0 0 0 0 0 0 0 0 0 0 0 0 0 0 0 0 0 0 0 0 0 0 0 0 0
0 0 0 0 0 0 0 0 0 0 0 0 0 0 0 0 0 0 0 0 0 0 0 0 0 0 0 0 0 0 0 0 0 0 0 0 0 0 0 0 0 0 0
0 0 0 0 0 0 0 0 0 0 0 0 0 0 0 0 0 0 0 0 0 0 0 0 0 0 0 0 0 0 0 0 0 0 0 0 0 0 0 0 0 0 0
0 0 0 0 0 0 0 0 0 0 0 0 0 0 0 0 0 0 0 0 0 0 0 0 0 0 0 0 0 0 0 0 0 0 0 0 0 0 0 0 0 0 0
0 0 0 0 0 0 0 0 0 0 0 0 0 0 0 0 0 0 0 0 0 0 0 0 0 0 0 0 0 0 0 0 0 0 0 0 0 0 0 0 0 0 0
0 0 0 0 0 0 0 0 0 0 0 0 0 0 0 0 0 0 0 0 0 0 0 0 0 0 0 0 0 0 0 0 0 0 0 0 0 0 0 0 0 0 0
0 0 0 0 0 0 0 0 0 0 0 0 0 0 0 0 0 0 0 0 0 0 0 0 0 0 0 0 0 0 0 0 0 0 0 0 0 0 0 0 0 0 0
0 0 0 0 0 0 0 0 0 0 0 0 0 0 0 0 0 0 0 0 0 0 0 0 0 0 0 0 0 0 0 0 0 0 0 0 0 0 0 0 0 0 0
0 0 0 0 0 0 0 0 0 0 0 0 0 0 0 0 0 0 0 0 0 0 0 0 0 0 0 0 0 0 0 0 0 0 0 0 0 0 0 0 0 0 0
0 0 0 0 0 0 0 0 0 0 0 0 0 0 0 0 0 0 0 0 0 0 0 0 0 0 0 0 0 0 0 0 0 0 0 0 0 0 0 0 0 0 0
0 0 0 0 0 0 0 0 0 0 0 0 0 0 0 0 0 0 0 0 0 0 0 0 0 0 0 0 0 0 0 0 0 0 0 0 0 0 0 0 0 0 0
0 0 0 0 0 0 0 0 0 0 0 0 0 0 0 0 0 0 0 0 0 0 0 0 0 0 0 0 0 0 0 0 0 0 0 0 0 0 0 0 0 0 0
0 0 0 0 0 0 0 0 0 0 0 0 0 0 0 0 0 0 0 0 0 0 0 0 0 0 0 0 0 0 0 0 0 0 0 0 0 0 0 0 0 0 0
0 0 0 0 0 0 0 0 0 0 0 0 0 0 0 0 0 0 0 0 0 0 0 0 0 0 0 0 0 0 0 0 0 0 0 0 0 0 0 0 0 0 0
0 0 0 0 0 0 0 0 0 0 0 0 0 0 0 0 0 0 0 0 0 0 0 0 0 0 0 0 0 0 0 0 0 0 0 0 0 0 0 0 0 0 0
0 0 0 0 0 0 0 0 0 0 0 0 0 0 0 0 0 0 0 0 0 0 0 0 0 0 0 0 0 0 0 0 0 0 0 0 0 0 0 0 0 0 0
Wind_Speed_500mb
58 56 54 55 58 64 63 62 58 54 52 51 50 48 50 44 41 41 39 36 35 31 30 27 24 19 18 17 23 24 28 29 33 38 39 37 41 38 38 31 39 37 38
64 61 57 57 60 63 66 65 59 61 57 56 53 52 46 45 49 37 42 40 38 38 37 34 31 30 27 25 26 30 32 33 37 39 40 37 46 38 39 50 43 44 46
70 69 63 64 61 67 69 65 60 60 59 61 63 61 57 56 55 51 43 48 46 45 44 40 36 35 33 32 32 34 37 33 36 35 35 22 17 48 49 51 45 51 46
70 69 64 67 68 70 71 69 63 64 63 65 69 69 63 61 53 46 42 33 45 47 44 41 40 37 37 38 40 37 36 34 34 38 33 33 43 37 34 40 45 54 56
76 77 69 68 63 70 74 70 70 74 72 70 63 66 69 56 43 36 35 32 32 35 37 40 40 40 41 38 32 32 30 29 29 30 29 34 32 34 37 49 48 66 65
78 82 74 68 63 62 70 69 67 71 74 73 69 66 64 59 50 44 39 28 28 30 32 39 40 41 40 37 34 30 27 26 28 30 32 32 34 43 42 52 63 57 60
89 84 78 73 67 67 66 68 65 67 71 73 71 70 66 62 56 49 44 40 41 37 33 35 36 36 33 31 28 28 28 25 23 19 24 27 33 39 48 55 59 57 70
72 93 92 80 73 70 67 66 63 64 68 71 70 69 68 64 59 55 53 46 46 39 33 29 35 40 29 28 28 29 26 26 27 22 27 33 35 37 38 42 50 65 57
59 68 78 81 72 68 68 67 65 63 64 65 65 65 65 62 60 58 60 53 47 36 35 31 26 25 28 30 26 24 23 27 24 25 25 23 23 27 31 35 42 49 48
48 55 62 65 64 61 60 61 61 60 60 62 65 65 64 60 56 58 55 52 48 37 36 36 33 33 30 29 30 24 20 18 15 15 17 20 23 26 30 34 38 43 51
56 58 58 57 55 57 58 57 56 56 58 58 57 56 58 58 56 52 52 52 47 45 45 45 35 33 30 26 20 15 13 11 12 14 18 21 25 30 34 38 42 45 52
50 53 53 52 52 51 51 51 49 48 47 44 42 40 43 51 53 55 56 50 44 41 36 33 30 27 24 20 16 12 10 10 13 17 21 26 31 35 40 44 48 53 55
55 56 52 52 48 49 52 50 48 44 40 39 37 39 41 48 56 58 55 48 41 39 37 32 30 27 23 17 12 9 10 15 19 23 26 30 36 40 44 46 48 51 53
53 56 56 53 52 53 50 47 45 43 45 45 43 42 46 50 53 54 49 44 43 39 38 36 31 25 18 12 9 10 14 18 20 24 30 34 36 38 39 40 43 45 50
54 59 59 57 56 53 49 46 46 47 46 48 48 50 51 53 53 51 51 49 47 44 40 34 28 21 15 11 10 13 16 19 24 28 30 30 32 32 34 37 42 47 51
63 66 64 61 60 58 56 54 52 50 50 51 52 53 55 56 55 54 52 50 47 43 37 32 25 19 13 11 15 17 20 23 25 25 26 25 25 28 32 37 41 44 49
67 72 72 69 67 64 60 60 58 55 56 57 58 58 58 58 57 56 54 50 46 40 36 29 22 16 13 15 18 21 23 24 23 20 18 20 26 31 37 42 47 49 50
55 65 72 73 72 67 65 61 60 63 63 65 63 61 61 60 59 56 53 50 43 37 32 25 20 16 15 18 20 22 22 21 18 15 19 24 30 37 44 48 49 51 52
57 59 63 69 72 72 69 67 68 68 69 68 66 64 63 61 59 56 52 46 40 36 29 24 18 17 19 21 22 22 21 16 15 17 22 28 33 38 43 48 51 54 55
63 62 62 62 71 75 73 73 77 77 76 73 69 65 63 60 57 54 49 44 40 34 28 22 22 22 22 23 23 21 18 16 18 22 29 37 41 44 45 47 52 58 60
70 66 61 61 64 71 75 80 82 83 77 72 68 65 62 59 55 52 48 44 39 32 27 28 26 25 25 25 23 20 20 20 22 27 33 38 42 46 46 48 51 56 60
57 64 63 63 64 65 75 84 86 82 76 73 70 67 64 61 58 53 49 44 37 33 33 32 31 28 26 25 24 23 22 22 24 29 34 37 41 45 48 48 49 54 57
42 45 50 57 58 62 74 85 85 82 79 76 72 69 65 62 59 54 49 41 42 38 37 37 35 30 29 29 27 25 24 26 29 33 37 40 43 44 46 51 52 51 52
30 32 38 47 55 61 70 82 80 78 77 75 74 71 69 66 60 52 51 50 44 42 40 43 39 36 34 32 31 29 28 31 35 38 41 46 49 52 52 53 53 52 49
15 19 27 36 44 53 64 73 73 73 75 74 73 72 69 62 61 64 56 51 45 40 46 42 42 41 38 35 35 34 36 40 40 44 47 48 50 52 52 52 53 54 53
8 9 16 24 31 40 52 64 68 71 74 76 77 76 75 73 67 61 59 52 44 50 48 47 46 44 42 43 43 42 45 44 44 48 50 50 52 52 52 54 56 56 55
Wind_Direction_500mb
228 226 228 229 228 231 232 232 231 232 230 230 231 232 233 237 241 243 246 249 253 253 258 262 267 270 285 292 285 292 297 299 301 305 302 298 301 307 314 327 323 316 321
231 230 227 226 225 228 230 230 229 233 233 234 238 242 248 247 248 260 253 250 250 254 257 259 265 270 273 276 280 285 292 296 296 299 311 308 310 316 317 318 327 330 325
233 233 229 231 229 228 228 227 227 230 232 237 239 241 244 250 247 248 247 247 251 256 259 263 264 267 271 273 277 279 277 281 287 294 300 299 308 301 319 321 321 315 317
237 239 238 237 235 235 232 231 230 233 235 237 240 240 243 248 249 248 256 251 249 251 255 260 263 263 265 269 274 280 288 286 289 296 297 305 303 306 311 313 310 314 316
238 239 236 240 241 238 234 234 233 233 235 236 237 238 240 245 248 250 245 259 255 254 250 250 252 255 257 261 263 272 276 286 289 295 302 299 300 309 320 317 314 311 313
240 239 239 237 236 233 230 232 234 235 233 233 233 234 236 239 238 241 244 251 247 249 250 250 251 252 256 262 265 266 272 279 281 277 280 288 303 303 306 305 309 314 321
241 240 233 229 233 233 230 231 231 232 233 233 233 235 236 240 240 237 243 242 249 252 256 253 250 251 252 253 258 265 269 267 269 271 291 291 291 297 301 304 310 314 320
247 245 239 233 230 229 227 226 226 226 229 234 235 238 239 238 237 234 235 236 245 248 245 244 242 250 249 255 259 263 256 277 279 277 280 286 291 298 308 315 318 319 323
248 241 230 224 222 224 225 223 222 222 227 232 235 236 238 235 230 228 226 227 237 243 242 231 231 244 248 255 243 244 253 260 269 273 282 293 303 310 313 318 325 327 323
235 223 215 213 213 217 219 220 221 226 231 236 238 238 236 231 223 220 225 229 228 233 234 235 237 239 228 226 239 246 248 256 267 280 293 306 311 317 320 322 323 322 319
217 209 207 209 210 214 219 223 226 232 238 238 236 232 227 222 218 212 214 219 218 231 233 236 218 219 225 224 222 222 237 258 280 302 312 317 321 324 324 325 325 324 321
217 209 210 213 214 217 223 227 226 225 224 220 216 210 208 205 201 198 202 209 225 226 215 201 202 199 198 198 206 222 251 286 303 308 316 322 325 327 329 329 329 330 331
209 211 211 215 218 219 216 215 211 208 209 207 200 197 198 194 188 192 200 211 220 196 189 188 188 190 192 197 214 245 282 298 311 318 320 328 331 332 334 336 335 332 332
209 211 213 215 215 214 212 208 204 200 202 203 198 196 195 195 195 198 201 204 195 189 184 184 189 190 195 209 237 276 299 306 313 324 328 330 332 333 333 334 333 334 333
216 217 218 215 213 211 209 208 206 202 197 199 196 195 194 193 195 196 195 190 188 184 186 189 188 191 200 226 268 288 300 315 323 325 327 328 329 333 336 337 339 338 335
223 224 224 221 218 215 212 209 207 202 199 196 193 192 191 191 189 188 188 188 188 188 188 188 191 199 219 261 286 299 308 314 315 317 322 328 333 337 336 337 337 336 336
233 228 228 225 223 220 217 212 207 202 198 194 191 188 188 188 187 188 189 191 191 190 191 192 199 217 247 273 289 297 301 303 303 308 318 327 329 332 333 333 335 337 337
244 241 237 232 227 222 218 213 208 204 199 196 194 192 191 190 190 191 193 194 192 193 197 202 216 239 265 278 282 285 288 290 298 307 318 324 327 331 330 330 333 334 334
270 262 252 238 231 226 221 215 209 205 203 200 197 197 196 196 196 196 196 195 197 200 206 215 232 252 260 269 273 276 280 284 293 314 321 325 328 328 329 329 330 332 332
259 255 251 239 231 227 222 216 212 209 206 204 201 200 201 201 201 200 199 200 202 207 215 229 241 248 256 264 269 270 267 279 297 311 322 329 333 334 335 334 334 334 333
259 255 251 246 238 227 219 216 214 213 209 206 204 203 203 202 202 203 202 204 207 214 226 235 239 246 255 261 262 262 272 288 305 317 325 328 329 332 337 338 335 331 329
259 254 247 243 238 229 220 218 216 214 209 206 205 205 206 204 203 205 206 208 212 222 231 235 240 246 253 256 259 265 273 290 303 314 318 322 324 328 332 334 332 330 324
261 260 252 244 237 228 221 220 217 212 208 206 207 207 207 206 206 207 208 216 221 226 232 241 242 246 249 253 257 264 279 293 302 310 315 320 324 327 329 329 332 330 325
267 261 248 240 233 227 223 220 218 212 210 209 208 208 208 207 207 210 223 219 224 230 240 239 241 245 249 253 259 269 283 292 302 312 317 320 325 327 329 329 329 326 325
284 263 249 243 239 231 223 219 214 214 211 211 211 210 209 210 223 218 217 223 226 238 241 242 244 247 250 256 263 273 282 290 301 307 312 317 318 320 323 324 324 324 324
334 287 257 245 242 234 225 219 214 214 215 213 212 213 214 214 212 215 220 224 233 242 242 245 247 249 253 259 266 272 279 289 296 302 306 309 310 314 317 320 322 323 322
Wind_Speed_850mb
58 56 54 55 58 64 63 62 58 54 52 51 50 48 50 44 41 41 39 36 35 31 30 27 24 19 18 17 23 24 28 29 33 38 39 37 41 38 38 31 39 37 38
64 61 57 57 60 63 66 65 59 61 57 56 53 52 46 45 49 37 42 40 38 38 37 34 31 30 27 25 26 30 32 33 37 39 40 37 46 38 39 50 43 44 46
70 69 63 64 61 67 69 65 60 60 59 61 63 61 57 56 55 51 43 48 46 45 44 40 36 35 33 32 32 34 37 33 36 35 35 22 17 48 49 51 45 51 46
70 69 64 67 68 70 71 69 63 64 63 65 69 69 63 61 53 46 42 33 45 47 44 41 40 37 37 38 40 37 36 34 34 38 33 33 43 37 34 40 45 54 56
76 77 69 68 63 70 74 70 70 74 72 70 63 66 69 56 43 36 35 32 32 35 37 40 40 40 41 38 32 32 30 29 29 30 29 34 32 34 37 49 48 66 65
78 82 74 68 63 62 70 69 67 71 74 73 69 66 64 59 50 44 39 28 28 30 32 39 40 41 40 37 34 30 27 26 28 30 32 32 34 43 42 52 63 57 60
89 84 78 73 67 67 66 68 65 67 71 73 71 70 66 62 56 49 44 40 41 37 33 35 36 36 33 31 28 28 28 25 23 19 24 27 33 39 48 55 59 57 70
72 93 92 80 73 70 67 66 63 64 68 71 70 69 68 64 59 55 53 46 46 39 33 29 35 40 29 28 28 29 26 26 27 22 27 33 35 37 38 42 50 65 57
59 68 78 81 72 68 68 67 65 63 64 65 65 65 65 62 60 58 60 53 47 36 35 31 26 25 28 30 26 24 23 27 24 25 25 23 23 27 31 35 42 49 48
48 55 62 65 64 61 60 61 61 60 60 62 65 65 64 60 56 58 55 52 48 37 36 36 33 33 30 29 30 24 20 18 15 15 17 20 23 26 30 34 38 43 51
56 58 58 57 55 57 58 57 56 56 58 58 57 56 58 58 56 52 52 52 47 45 45 45 35 33 30 26 20 15 13 11 12 14 18 21 25 30 34 38 42 45 52
50 53 53 52 52 51 51 51 49 48 47 44 42 40 43 51 53 55 56 50 44 41 36 33 30 27 24 20 16 12 10 10 13 17 21 26 31 35 40 44 48 53 55
55 56 52 52 48 49 52 50 48 44 40 39 37 39 41 48 56 58 55 48 41 39 37 32 30 27 23 17 12 9 10 15 19 23 26 30 36 40 44 46 48 51 53
53 56 56 53 52 53 50 47 45 43 45 45 43 42 46 50 53 54 49 44 43 39 38 36 31 25 18 12 9 10 14 18 20 24 30 34 36 38 39 40 43 45 50
54 59 59 57 56 53 49 46 46 47 46 48 48 50 51 53 53 51 51 49 47 44 40 34 28 21 15 11 10 13 16 19 24 28 30 30 32 32 34 37 42 47 51
63 66 64 61 60 58 56 54 52 50 50 51 52 53 55 56 55 54 52 50 47 43 37 32 25 19 13 11 15 17 20 23 25 25 26 25 25 28 32 37 41 44 49
67 72 72 69 67 64 60 60 58 55 56 57 58 58 58 58 57 56 54 50 46 40 36 29 22 16 13 15 18 21 23 24 23 20 18 20 26 31 37 42 47 49 50
55 65 72 73 72 67 65 61 60 63 63 65 63 61 61 60 59 56 53 50 43 37 32 25 20 16 15 18 20 22 22 21 18 15 19 24 30 37 44 48 49 51 52
57 59 63 69 72 72 69 67 68 68 69 68 66 64 63 61 59 56 52 46 40 36 29 24 18 17 19 21 22 22 21 16 15 17 22 28 33 38 43 48 51 54 55
63 62 62 62 71 75 73 73 77 77 76 73 69 65 63 60 57 54 49 44 40 34 28 22 22 22 22 23 23 21 18 16 18 22 29 37 41 44 45 47 52 58 60
70 66 61 61 64 71 75 80 82 83 77 72 68 65 62 59 55 52 48 44 39 32 27 28 26 25 25 25 23 20 20 20 22 27 33 38 42 46 46 48 51 56 60
57 64 63 63 64 65 75 84 86 82 76 73 70 67 64 61 58 53 49 44 37 33 33 32 31 28 26 25 24 23 22 22 24 29 34 37 41 45 48 48 49 54 57
42 45 50 57 58 62 74 85 85 82 79 76 72 69 65 62 59 54 49 41 42 38 37 37 35 30 29 29 27 25 24 26 29 33 37 40 43 44 46 51 52 51 52
30 32 38 47 55 61 70 82 80 78 77 75 74 71 69 66 60 52 51 50 44 42 40 43 39 36 34 32 31 29 28 31 35 38 41 46 49 52 52 53 53 52 49
15 19 27 36 44 53 64 73 73 73 75 74 73 72 69 62 61 64 56 51 45 40 46 42 42 41 38 35 35 34 36 40 40 44 47 48 50 52 52 52 53 54 53
8 9 16 24 31 40 52 64 68 71 74 76 77 76 75 73 67 61 59 52 44 50 48 47 46 44 42 43 43 42 45 44 44 48 50 50 52 52 52 54 56 56 55
Wind_Direction_850mb
228 226 228 229 228 231 232 232 231 232 230 230 231 232 233 237 241 243 246 249 253 253 258 262 267 270 285 292 285 292 297 299 301 305 302 298 301 307 314 327 323 316 321
231 230 227 226 225 228 230 230 229 233 233 234 238 242 248 247 248 260 253 250 250 254 257 259 265 270 273 276 280 285 292 296 296 299 311 308 310 316 317 318 327 330 325
233 233 229 231 229 228 228 227 227 230 232 237 239 241 244 250 247 248 247 247 251 256 259 263 264 267 271 273 277 279 277 281 287 294 300 299 308 301 319 321 321 315 317
237 239 238 237 235 235 232 231 230 233 235 237 240 240 243 248 249 248 256 251 249 251 255 260 263 263 265 269 274 280 288 286 289 296 297 305 303 306 311 313 310 314 316
238 239 236 240 241 238 234 234 233 233 235 236 237 238 240 245 248 250 245 259 255 254 250 250 252 255 257 261 263 272 276 286 289 295 302 299 300 309 320 317 314 311 313
240 239 239 237 236 233 230 232 234 235 233 233 233 234 236 239 238 241 244 251 247 249 250 250 251 252 256 262 265 266 272 279 281 277 280 288 303 303 306 305 309 314 321
241 240 233 229 233 233 230 231 231 232 233 233 233 235 236 240 240 237 243 242 249 252 256 253 250 251 252 253 258 265 269 267 269 271 291 291 291 297 301 304 310 314 320
247 245 239 233 230 229 227 226 226 226 229 234 235 238 239 238 237 234 235 236 245 248 245 244 242 250 249 255 259 263 256 277 279 277 280 286 291 298 308 315 318 319 323
248 241 230 224 222 224 225 223 222 222 227 232 235 236 238 235 230 228 226 227 237 243 242 231 231 244 248 255 243 244 253 260 269 273 282 293 303 310 313 318 325 327 323
235 223 215 213 213 217 219 220 221 226 231 236 238 238 236 231 223 220 225 229 228 233 234 235 237 239 228 226 239 246 248 256 267 280 293 306 311 317 320 322 323 322 319
217 209 207 209 210 214 219 223 226 232 238 238 236 232 227 222 218 212 214 219 218 231 233 236 218 219 225 224 222 222 237 258 280 302 312 317 321 324 324 325 325 324 321
217 209 210 213 214 217 223 227 226 225 224 220 216 210 208 205 201 198 202 209 225 226 215 201 202 199 198 198 206 222 251 286 303 308 316 322 325 327 329 329 329 330 331
209 211 211 215 218 219 216 215 211 208 209 207 200 197 198 194 188 192 200 211 220 196 189 188 188 190 192 197 214 245 282 298 311 318 320 328 331 332 334 336 335 332 332
209 211 213 215 215 214 212 208 204 200 202 203 198 196 195 195 195 198 201 204 195 189 184 184 189 190 195 209 237 276 299 306 313 324 328 330 332 333 333 334 333 334 333
216 217 218 215 213 211 209 208 206 202 197 199 196 195 194 193 195 196 195 190 188 184 186 189 188 191 200 226 268 288 300 315 323 325 327 328 329 333 336 337 339 338 335
223 224 224 221 218 215 212 209 207 202 199 196 193 192 191 191 189 188 188 188 188 188 188 188 191 199 219 261 286 299 308 314 315 317 322 328 333 337 336 337 337 336 336
233 228 228 225 223 220 217 212 207 202 198 194 191 188 188 188 187 188 189 191 191 190 191 192 199 217 247 273 289 297 301 303 303 308 318 327 329 332 333 333 335 337 337
244 241 237 232 227 222 218 213 208 204 199 196 194 192 191 190 190 191 193 194 192 193 197 202 216 239 265 278 282 285 288 290 298 307 318 324 327 331 330 330 333 334 334
270 262 252 238 231 226 221 215 209 205 203 200 197 197 196 196 196 196 196 195 197 200 206 215 232 252 260 269 273 276 280 284 293 314 321 325 328 328 329 329 330 332 332
259 255 251 239 231 227 222 216 212 209 206 204 201 200 201 201 201 200 199 200 202 207 215 229 241 248 256 264 269 270 267 279 297 311 322 329 333 334 335 334 334 334 333
259 255 251 246 238 227 219 216 214 213 209 206 204 203 203 202 202 203 202 204 207 214 226 235 239 246 255 261 262 262 272 288 305 317 325 328 329 332 337 338 335 331 329
259 254 247 243 238 229 220 218 216 214 209 206 205 205 206 204 203 205 206 208 212 222 231 235 240 246 253 256 259 265 273 290 303 314 318 322 324 328 332 334 332 330 324
261 260 252 244 237 228 221 220 217 212 208 206 207 207 207 206 206 207 208 216 221 226 232 241 242 246 249 253 257 264 279 293 302 310 315 320 324 327 329 329 332 330 325
267 261 248 240 233 227 223 220 218 212 210 209 208 208 208 207 207 210 223 219 224 230 240 239 241 245 249 253 259 269 283 292 302 312 317 320 325 327 329 329 329 326 325
284 263 249 243 239 231 223 219 214 214 211 211 211 210 209 210 223 218 217 223 226 238 241 242 244 247 250 256 263 273 282 290 301 307 312 317 318 320 323 324 324 324 324
334 287 257 245 242 234 225 219 214 214 215 213 212 213 214 214 212 215 220 224 233 242 242 245 247 249 253 259 266 272 279 289 296 302 306 309 310 314 317 320 322 323 322